UTTI_(FIN-AFB) current weather conditions

sailwx.info

Wind from 260 at 11 knots

Air temperature 2.0° C
Visibility: greater than 5.4 NM
Dewpoint 1.0° C

Last reported at 2020-Jan-26 08:50 UTC.
Time now 2020-Jan-26 10:04 UTC

Location: N 60°54' E 026°56'.
View on Google Maps.

See reports from other nearby stations

  
Tides and Currents Weather Stations Pressure Air Temp Water Temp Dewpoint Dewpoint Depression Visibility Wind Speed Wind Dir Waves Ship Positions
date/time (UTC)wind fromknots sea level pressurealtimeterstation pressurevisibilityair tempwater tempwave heightnotes
2020-Jan-26 08:50 260 11 5.4 2.0
2020-Jan-26 08:20 250 12 5.4 2.0
2020-Jan-26 07:50 240 12 5.4 1.0
2020-Jan-26 07:20 230 8 5.4 1.0
2020-Jan-26 06:50 220 8 5.4 1.0 Light rain snow.
2020-Jan-26 06:20 220 11 3.2-0.0 Light snow.
2020-Jan-26 05:50 200 8 2.7-0.0 Light freezing drizzle. Snow.
2020-Jan-26 05:20 180 6 3.2-1.0 Light snow.
2020-Jan-26 04:50 170 7 3.2-1.0 Light snow.
2020-Jan-26 04:20 150 6 2.6-2.0 Light snow.
2020-Jan-26 03:50 150 6 1.7-2.0 Snow.
2020-Jan-26 03:20 160 5 1.4-3.0 Light snow.
2020-Jan-26 02:50 190 6 1.8-3.0 Light snow showers.
2020-Jan-26 02:20 200 6 3.2-3.0 Light snow.
2020-Jan-26 01:50 200 5 5.4-4.0
2020-Jan-26 01:20 5.4-4.0
2020-Jan-26 00:50 5.4-4.0
2020-Jan-26 00:20 230 4 5.4-5.0
2020-Jan-25 23:50 240 5 5.4-4.0
2020-Jan-25 23:20 250 5 5.4-5.0 Precipitation.
2020-Jan-25 22:50 240 6 5.4-5.0 Precipitation.
2020-Jan-25 22:20 250 6 5.4-5.0 Precipitation.
2020-Jan-25 21:50 240 6 5.4-5.0
2020-Jan-25 21:20 240 6 5.4-5.0
2020-Jan-25 20:50 260 6 5.4-5.0
2020-Jan-25 20:20 260 6 5.4-5.0
2020-Jan-25 19:50 270 6 5.4-3.0
2020-Jan-25 19:20 270 7 5.4-3.0
2020-Jan-25 18:50 280 7 5.4-2.0
2020-Jan-25 18:20 280 6 5.4-2.0
2020-Jan-25 17:50 290 6 5.4-2.0
2020-Jan-25 17:20 290 5 5.4-2.0
2020-Jan-25 16:50 290 5 5.4-2.0
2020-Jan-25 16:20 290 5 5.4-2.0
2020-Jan-25 15:50 300 6 5.4-1.0
2020-Jan-25 15:20 300 7 5.4-1.0
2020-Jan-25 14:50 300 9 5.4-1.0
2020-Jan-25 14:20 300 8 5.4-1.0
2020-Jan-25 13:50 300 9 5.4-1.0
2020-Jan-25 13:20 310 9 5.4-0.0
2020-Jan-25 12:50 300 9 5.4-0.0
2020-Jan-25 12:20 300 11 gusting 22 5.4-0.0
2020-Jan-25 11:50 300 9 5.4-0.0
2020-Jan-25 11:20 300 12 5.4-0.0
2020-Jan-25 10:50 300 12 5.4-0.0
2020-Jan-25 10:20 300 12 5.4-0.0
2020-Jan-25 09:50 300 12 5.4-0.0
2020-Jan-25 09:20 300 12 5.4-0.0
2020-Jan-25 08:50 280 12 5.4-0.0
2020-Jan-25 08:20 300 11 5.4-0.0
2020-Jan-25 07:50 290 13 5.4-0.0
2020-Jan-25 07:20 290 11 5.4-1.0
2020-Jan-25 06:50 300 9 5.4-1.0
2020-Jan-25 06:20 290 8 5.4-1.0
2020-Jan-25 05:50 290 11 5.4-0.0
2020-Jan-25 05:20 290 8 5.4-1.0
2020-Jan-25 04:50 290 8 gusting 19 5.4-0.0
2020-Jan-25 04:20 290 11 gusting 21 5.4-0.0
2020-Jan-25 03:50 290 8 5.4-0.0
2020-Jan-25 03:20 290 11 5.4-0.0
2020-Jan-25 02:50 280 9 5.4-0.0
2020-Jan-25 02:20 270 8 5.4-1.0
2020-Jan-25 01:50 260 6 5.4-1.0
2020-Jan-25 01:20 250 7 5.4-2.0
2020-Jan-25 00:50 250 6 5.4-2.0
2020-Jan-25 00:20 250 8 5.4-2.0
2020-Jan-24 23:50 240 8 5.4-1.0
2020-Jan-24 23:20 240 8 5.4-1.0
2020-Jan-24 22:50 240 6 5.4-1.0
2020-Jan-24 22:20 240 5 5.4-2.0
2020-Jan-24 21:50 210 6 5.4-2.0
2020-Jan-24 21:20 220 6 5.4-3.0 Precipitation.
2020-Jan-24 20:50 220 7 5.4-3.0
2020-Jan-24 20:20 240 6 5.4-2.0
2020-Jan-24 19:50 240 6 5.4-2.0
2020-Jan-24 19:20 240 6 5.4-2.0
2020-Jan-24 18:50 230 7 5.4-2.0
2020-Jan-24 18:20 260 6 5.4-1.0
2020-Jan-24 17:50 250 7 5.4-0.0
2020-Jan-24 17:20 270 6 5.4-0.0
2020-Jan-24 16:50 270 6 5.4-0.0
2020-Jan-24 16:20 270 6 5.4-0.0
2020-Jan-24 15:50 260 6 5.4-0.0
2020-Jan-24 15:20 270 6 5.4 1.0
2020-Jan-24 14:50 260 6 5.4 1.0
2020-Jan-24 14:20 260 8 5.4 1.0
2020-Jan-24 13:50 240 7 5.4 1.0
2020-Jan-24 13:20 230 6 5.4 1.0
2020-Jan-24 12:50 230 6 5.4 1.0
2020-Jan-24 12:20 260 5 5.4 2.0
2020-Jan-24 11:50 290 5 5.4 2.0
2020-Jan-24 11:20 280 4 5.4 2.0
2020-Jan-24 10:50 270 6 5.4 2.0
2020-Jan-24 10:20 290 5 5.4 2.0